Regional Weather Roundup
Issued by NWS

Home | Current Version | Previous Version | Graphics & Text | Print | Product List | Glossary On
Versions: 1 2 3 4 5 6 7 8 9 10 11 12 13 14 15 16 17 18 19 20 21 22 23 24 25 26 27 28 29 30 31 32 33 34 35 36 37 38 39 40 41 42 43 44 45 46 47 48 49 50
000
ASUS45 KTFX 010519
RWRMT
MONTANA HOURLY WEATHER ROUNDUP
NATIONAL WEATHER SERVICE GREAT FALLS MT
1019 PM MST SAT JAN 31 2015

NOTE: "FAIR" INDICATES FEW OR NO CLOUDS BELOW 12000 FEET WITH NO
SIGNIFICANT WEATHER AND/OR OBSTRUCTIONS TO VISIBILITY.

* THESE STATIONS ARE NOT UNDER NWS QUALITY CONTROL. THEY DO NOT
   REPORT WEATHER SUCH AS PRECIPITATION OR FOG.

MTZ001>007-043-010600-
WEST OF THE DIVIDE
CITY           SKY/WX    TMP DP  RH WIND       PRES   REMARKS
KALISPELL      CLOUDY    27  16  63 N8        30.24R WCI  19
MISSOULA       MOCLDY    30  25  82 N10       30.21R WCI  21
BUTTE          CLOUDY    19  14  81 CALM      30.14R
MULLAN PASS    CLOUDY    21  18  88 CALM      30.12S
* ANACONDA     PTCLDY    19  12  74 N/A        N/A
* ESSEX        N/A       17   7  65 SE6        N/A   WCI   8
* EUREKA APT   PTCLDY    28  27  96 CALM      30.27S
* HAMILTON APT PTCLDY    28  21  75 S2        30.18R
* LIBBY APT    PTCLDY    30  27  89 CALM      30.26S
* LINCOLN      N/A       12   3  67 E4G9       N/A
* LOOKOUT PASS N/A       24  24 100 NW3        N/A
* POLSON       N/A       25  24  96 N/A        N/A
* RONAN APT    MOCLDY    27  27 100 N/A        N/A
* SEELEY LAKE  N/A       22  13  68 W2         N/A
* THOMP F APT  PTCLDY    15  12  88 N3         N/A
$$

MTZ008-052>055-010600-
SOUTHWEST MONTANA
CITY           SKY/WX    TMP DP  RH WIND       PRES   REMARKS
BOZEMAN        CLOUDY    19  12  74 SW9       30.22R WCI   8
DILLON         PTCLDY    16  10  77 NE10      30.13R WCI   4
* W YELLOWSTON PTCLDY    14  12  92 N/A        N/A
* THREE FORKS  PTCLDY    19  18  96 N/A        N/A
* BOULDER HILL N/A        9   5  84 N8         N/A   WCI  -3
* MONIDA PASS  N/A       15   6  67 W2         N/A
* RAYNOLDS PAS N/A       16 -13  26 NE2        N/A
* WHITEHALL    N/A       18   8  65 E6G14      N/A   WCI  10
* WISE RIVER   N/A       22  12  65 SE7        N/A   WCI  13
$$

MTZ009>010-012-014-046-048-049-054-010600-
EAST SLOPES AND CENTRAL MONTANA
CITY           SKY/WX    TMP DP  RH WIND       PRES   REMARKS
CUT BANK       MOCLDY     0  -4  83 CALM      30.31S
GREAT FALLS    CLOUDY     7   3  83 N3        30.33S
HELENA         CLOUDY    18   9  68 N8        30.27F WCI   8
MALMSTROM AFB  LGT SNOW   7   5  91 E2        30.36S
* CONRAD       MOCLDY     5   0  80 CALM       N/A
* DEARBORN     N/A       11   6  80 NW1        N/A
* EAST GLACIER N/A        2   0  91 E1         N/A
* MONARCH      N/A        3  -2  79 NW2        N/A
* PENDROY      N/A        0  -3  87 NW2        N/A
* ROGERS PASS  N/A        5   1  83 NW1        N/A
* SWEET GRASS  N/A        1  -2  87 NW3        N/A
* WHITE SULPH  N/A       10   2  70 W5G11      N/A   WCI   1
$$

MTZ011-013-016-021-035-040-045-047-050-051-010600-
NORTH CENTRAL MONTANA
CITY           SKY/WX    TMP DP  RH WIND       PRES   REMARKS
HAVRE          LGT SNOW   7   3  83 NE3       30.43R VSB 3
LEWISTOWN      LGT SNOW   9   3  76 W8        30.27S WCI  -3
* N BAR RANCH  CLOUDY     9   1  70 NW9       30.24R WCI  -4
* CHINOOK      MOCLDY     7   1  76 E5        30.45S VSB 3    WCI  -2
* MALTA APT    MOCLDY     5  -4  66 N5         N/A   WCI  -5
* CHESTER      N/A        3  -3  76 N/A        N/A
* DENTON       N/A        9   6  87 NW6        N/A   WCI  -1
* GEYSER       N/A        5   2  87 W18G24     N/A   WCI -15
* JUDITH GAP   N/A        6   5  96 N15        N/A   WCI -12
* LOMA         N/A        3   0  87 NW7        N/A   WCI  -9
$$

MTZ017>020-022>027-061-062-010600-
NORTHEAST MONTANA
CITY           SKY/WX    TMP DP  RH WIND       PRES   REMARKS
GLASGOW        LGT SNOW   3   0  87 N6        30.45R WCI  -8
GLENDIVE       CLOUDY     1  -4  79 NE12      30.38R WCI -16
JORDAN         CLOUDY     7   1  76 NE9       30.39R WCI  -6
SIDNEY         MOCLDY     1  -6  72 N8        30.47R WCI -13
WOLF POINT     HAZE       3  -4  72 E10       30.48R WCI -12
* BEAVER HILL  N/A        0  -4  83 N13        N/A   WCI -18
* CIRCLE       N/A        4   1  87 NE6G11     N/A   WCI  -7
* LINDSAY DVD  N/A      N/A N/A N/A N6         N/A
* NAVAJO       N/A       -4  -8  83 N8         N/A   WCI -19
* PLENTYWOOD A CLOUDY    -2  -8  75 NE7       30.43S WCI -15
* POPLAR APT   CLOUDY     1  -8  65 N/A       30.47R
* SACO         N/A        4  -1  79 VRB8       N/A   WCI  -9
* SCOBEY APT   PTCLDY    -2 -11  65 N7         N/A   WCI -15
$$

MTZ028>042-056>058-010600-
SOUTHCENTRAL AND SOUTHEAST MONTANA
CITY           SKY/WX    TMP DP  RH WIND       PRES   REMARKS
BAKER          LGT SNOW   3   0  87 NE12      30.29R VSB 1 1/2 WCI -14
BILLINGS       LGT SNOW  14  10  84 N8        30.29R VSB 1 1/2 WCI   3
LIVINGSTON     LGT SNOW  18  10  71 NW5       30.19S WCI  11
MILES CITY     LGT SNOW   7   1  76 NE12      30.35R VSB 2    WCI  -9
* BIG TIMBER A CLOUDY    14   9  80 CALM      30.22S
* FORSYTH APT  PTCLDY     9   5  84 N9        30.35R VSB 2 1/2 WCI  -4
* LAUREL APT   MOCLDY    14   5  67 N6         N/A   WCI   5
* ROUNDUP APT  CLOUDY    10   1  67 N7         N/A   WCI  -1
* ALZADA       N/A       12   9  88 N7         N/A   WCI   1
* HYSHAM       N/A        8   4  84 N4         N/A
* LAME DEER    N/A        5   2  87 NW8G13     N/A   WCI  -8
* REED POINT   N/A       17  12  81 E6         N/A   WCI   8
* ROSCOE HILL  N/A       13   9  84 NW4        N/A
$$

REGIONAL REPORTS...DAKOTAS
CITY           SKY/WX    TMP DP  RH WIND       PRES   REMARKS
WILLISTON      PTCLDY    -2 -11  65 NE9       30.46S WCI -18
DICKINSON      LGT SNOW   0  -8  68 NE15      30.31R VSB 1 1/2 WCI -19
BEACH          LGT SNOW   1   0  95 NE7       30.34R WCI -12
CROSBY         CLEAR     -4 -13  65 NE5       30.49R WCI -15
TIOGA          CLEAR     -8 -11  86 NE6       30.46R WCI -21
WATFORD CITY   LGT SNOW  -2  -8  75 NE9       30.42R WCI -18
BISMARCK       LGT SNOW  -2  -9  72 NE14      30.43R VSB 3    WCI -21
GRAND FORKS    PTCLDY    -8 -17  64 N12       30.54R WCI -28
FARGO          PTCLDY     0  -9  65 N21       30.42R WCI -22
BUFFALO SD     PTCLDY     5   1  83 NE16      30.15R WCI -14
RAPID CITY     LGT SNOW  12   9  88 NE17      30.15R VSB 1 1/4 WCI  -5
$$

REGIONAL REPORTS...WYOMING/IDAHO/WASHINGTON
CITY           SKY/WX    TMP DP  RH WIND       PRES   REMARKS
GILLETTE       CLOUDY    18  12  77 N18G26    30.10R WCI   2
SHERIDAN       CLOUDY    16   9  74 NW21      30.22R WCI  -1
CODY           CLOUDY    16  14  92 N13       30.14R WCI   2
YELLOWSTONE LA PTCLDY     9   5  84 CALM      30.08R
SALMON         CLOUDY    21  18  88 CALM      30.23R
MULLAN PASS    CLOUDY    21  18  88 CALM      30.12S
SAND POINT     CLOUDY    32  32 100 CALM      30.29S
SPOKANE        CLOUDY    30  28  92 N3        30.28S
$$

REGIONAL REPORTS...ALBERTA
CITY           SKY/WX    TMP DP  RH WIND       PRES   REMARKS
CALGARY        N/A        1  -2  87 S8        30.27F WCI -13
LETHBRIDGE     N/A       -9 -13  82 S8        30.38S WCI -25
MEDICINE HAT   CLEAR     -2  -4  91 NE3       30.45S
EDMONTON       LGT SNOW   3  -2  79 S9        30.36F WCI -11
WATERTON GATE  N/A       -4  -8  83 N1         N/A
CARDSTON       N/A        0  -2  91 SW2        N/A
MILK RIVER     N/A       -8 -11  86 W3         N/A
$$

REGIONAL REPORTS...SASKATCHEWAN
CITY           SKY/WX    TMP DP  RH WIND       PRES   REMARKS
SWIFT CURRENT  CLEAR     -6  -9  87 S2        30.41F
REGINA         PTCLDY    -8 -13  78 N6        30.52R WCI -21
VAL MARIE      N/A        0  -4  83 NE7        N/A   WCI -13
ASSINIBOIA     N/A       -4  -8  83 N5         N/A   WCI -15
CORONACH       N/A       -4  -8  83 N6         N/A   WCI -17

$$



USA.gov is the U.S. government's official web portal to all federal, state and local government web resources and services.